User: anonymous   Login
Location: NJAA Observatory
(40.6819°N, 74.8979°W)
Time: 12:18:45
(UTC-04:00)
Language:

ALOS - Orbit

View from above orbital plane
View from above orbital plane
View from above satellite
View from above satellite

Ground track
Ground track

The orbit data is extracted from the following two-line orbital elements,

1 28931U 06002A   17291.98320868 +.00000207 +00000-0 +49526-4 0  9994
2 28931 097.8364 313.0983 0000817 054.2357 305.8922 14.62408309625550
Epoch (UTC): 18 October 2017 23:35:49
Eccentricity: 0.0000817
inclination: 97.8364°
perigee height: 685 km
apogee height: 686 km
right ascension of ascending node: 313.0983°
argument of perigee: 54.2357°
revolutions per day: 14.62408309
mean anomaly at epoch: 305.8922°
orbit number at epoch: 62555

The dashed part of the orbit path shows where the satellite is in the earth's shadow,  

DLR